Location: SE Lincoln, NE
(40.7805°N, 96.6275°W)
Time: 19:03:54
(UTC-05:00)

Envisat - Visible Passes

Search period start: 21 September 2021 00:00
Search period end: 01 October 2021 00:00
Orbit: 764 x 766 km, 98.2° (Epoch: 21 September)

Date Brightness Start Highest point End Pass type
(mag) Time Alt. Az. Time Alt. Az. Time Alt. Az.
21 Sep 3.4 06:29:42 10° NNE 06:34:47 69° ESE 06:39:50 10° S visible
22 Sep 5.0 05:53:20 10° NE 05:57:48 30° E 06:02:15 10° SSE visible
23 Sep 6.0 05:18:08 10° ENE 05:20:37 14° E 05:23:06 10° ESE visible
24 Sep 3.9 06:18:16 10° NNE 06:23:15 54° E 06:28:13 10° S visible
25 Sep 5.4 05:42:07 10° NE 05:46:13 24° E 05:50:17 10° SSE visible
26 Sep 6.3 05:08:24 10° E 05:08:58 10° E 05:09:31 10° E visible
26 Sep 3.0 06:43:30 10° NNE 06:48:37 86° WNW 06:53:41 10° SSW visible
27 Sep 4.4 06:06:53 10° NNE 06:11:43 42° E 06:16:29 10° S visible
28 Sep 5.7 05:31:02 10° NE 05:34:36 19° E 05:38:09 10° SE visible
29 Sep 3.3 06:32:00 10° NNE 06:37:06 75° ESE 06:42:10 10° S visible
30 Sep 4.8 05:55:34 10° NNE 06:00:08 33° E 06:04:41 10° SSE visible
